Terminal Aerodrome Forecast
Issued by NWS Tiyan, Guam

Home | Current Version | Previous Version | Text Only | Print | Product List | Glossary On
Versions: 1 2 3 4 5 6 7 8 9 10 11 12 13
000
FTPQ31 PGUM 191720
TAFGUM
TAF
PGUM 191720Z 1918/2024 06010KT P6SM FEW025 FEW050
     FM200000 06012G22KT P6SM FEW025 SCT050
     FM200800 06011KT P6SM FEW025 SCT050=

USA.gov is the U.S. government's official web portal to all federal, state and local government web resources and services.